Weather History for Amritsar, India

Change the Weather History Date:

Monday, October 22, 2012

  Actual Average Record
Temperature  
Mean Temperature 74 °F -  
Max Temperature 87 °F 83 °F 91 °F (2000)
Min Temperature 60 °F 59 °F 41 °F (2005)
Cooling Degree Days 8    
Growing Degree Days 24 (Base 50)    
Moisture  
Dew Point 60 °F    
Average Humidity 66    
Maximum Humidity 94    
Minimum Humidity 35    
Precipitation  
Precipitation 0.00 in - - ()
Sea Level Pressure  
Sea Level Pressure 30.02 in    
Wind  
Wind Speed 1 mph ()    
Max Wind Speed 6 mph    
Max Gust Speed -    
Visibility 2.3 miles    
Events      
Averages and records for this station are not official NWS values.
T = Trace of Precipitation, MM = Missing Value Source: Averaged Metar Reports

Daily Weather History Graph

Daily Weather History Graph

Search for Another Location

Airport:

Trip Planner

Search our weather history database for the weather conditions in past years. The results will help you decide how hot, cold, wet, or windy it might be!

Date:

Astronomy

Oct. 22, 2012 Rise Set
Actual Time 6:39 AM IST 5:50 PM IST
Civil Twilight 6:14 AM IST 6:15 PM IST
Nautical Twilight 5:45 AM IST 6:44 PM IST
Astronomical Twilight 5:17 AM IST 7:12 PM IST
Moon 1:16 PM IST (10/22) 12:25 AM IST (10/23)
Length of Visible Light 12h 01m
Length of Day
11h 11m
First Quarter, 51% of the Moon is Illuminated
Oct 22
First Quarter
Oct 30
Full
Nov 7
Last Quarter
Nov 14
New
Nov 20
First Quarter

Hourly Weather History & Observations

Time (IST) Temp. Heat Index Dew Point Humidity Pressure Visibility Wind Dir Wind Speed Gust Speed Precip Events Conditions
12:00 AM 66.2 °F - 60.8 °F 83% 30.04 in 1.9 mi Calm Calm - N/A   Scattered Clouds
12:30 AM 66.2 °F - 60.8 °F 83% 30.04 in 1.9 mi Calm Calm - N/A   Scattered Clouds
1:00 AM 66.2 °F - 60.8 °F 83% 30.04 in 1.9 mi Calm Calm - N/A   Scattered Clouds
2:30 AM 66.2 °F - 60.8 °F 83% 30.01 in 1.9 mi Calm Calm - N/A   Mist
5:30 AM 62 °F - 60 °F 93% 30.00 in 1 mi Calm Calm - -   Mist
6:00 AM 62.6 °F - 60.8 °F 94% 30.01 in 1.9 mi Calm Calm - N/A   Mist
6:30 AM 62.6 °F - 60.8 °F 94% 30.01 in 1.9 mi Calm Calm - N/A   Mist
8:30 AM 65 °F - 60 °F 78% 30.04 in 1 mi Calm Calm - -   Mist
9:00 AM 68.0 °F - 59.0 °F 73% 30.06 in 1.6 mi Calm Calm - N/A   Haze
10:00 AM 69.8 °F - 57.2 °F 64% 30.06 in 2.5 mi Calm Calm - N/A   Haze
10:30 AM 71.6 °F - 57.2 °F 60% 30.09 in 2.5 mi Calm Calm - N/A   Haze
12:00 PM 77.0 °F - 57.2 °F 50% 30.06 in 3.7 mi West 4.6 mph - N/A   Partly Cloudy
2:00 PM 82.4 °F 82.0 °F 57.2 °F 42% 30.04 in 5.0 mi West 4.6 mph - N/A   Unknown
2:30 PM 83 °F - 60 °F 35% 29.97 in 2 mi West 5.8 mph - -   Scattered Clouds
2:30 PM 82.4 °F 82.0 °F 57.2 °F 42% 30.04 in 5.0 mi West 4.6 mph - N/A   Partly Cloudy
4:00 PM 86.0 °F 86.1 °F 60.8 °F 43% 29.98 in 4.3 mi West 5.8 mph - N/A   Unknown
5:30 PM 81 °F - 62 °F 43% 29.94 in 2 mi WNW 4.6 mph - -  
8:30 PM 76 °F - 63 °F 56% 29.97 in 1 mi Calm Calm - -   Haze
9:30 PM 77.0 °F - 62.6 °F 61% 29.98 in 2.5 mi Calm Calm - N/A   Haze
11:30 PM 73 °F - 62 °F 61% 29.99 in 1 mi Calm Calm - -   Haze